Location: Grantham
(50.0698°N, 112.0083°W)
Time: 22:30:13
(UTC+00:00)

ISS - Pass Details

Date: 05 December 2021
Orbit: 413 x 422 km, 51.6° (Epoch: 24 January)

Event Time Altitude Azimuth Distance (km) Brightness Sun altitude
Rises 00:34:04 0° 286° (WNW) 2,387 1.0 -10.2°
Reaches altitude 10° 00:36:10 10° 285° (WNW) 1,518 -0.1 -10.5°
Maximum altitude 00:39:35 78° 201° (SSW) 438 -3.6 -11.0°
Enters shadow 00:42:55 10° 113° (ESE) 1,490 -1.4 -11.5°
